RH
36 35 35 36 37 34 32 31 29 28 29 31 33 36 39 40 42 43 44 43 41 39 41 44 49 50 46 41 35 28 22 17 14 12 11 10 9 9 8 8 7 7
45 44 43 42 40 36 33 32 31 35 36 30 26 30 37 41 41 39 39 42 45 46 47 48 49 47 43 39 34 27 21 15 12 10 10 10 9 8 7 6 6 5
53 51 49 48 44 40 38 35 36 42 37 23 17 22 29 34 35 35 35 39 47 52 51 49 48 47 44 39 32 26 20 15 12 11 10 10 10 10 8 6 6 5
59 56 53 54 51 45 42 39 39 41 31 19 17 18 22 27 31 35 37 41 47 50 50 50 52 53 51 45 37 29 24 19 16 13 12 12 12 12 11 10 8 7
64 62 58 57 53 48 46 43 41 36 24 17 17 17 21 25 31 40 48 52 53 52 50 51 53 56 56 54 49 43 37 31 26 22 17 16 15 15 15 15 14 13
75 71 63 57 53 51 50 47 40 32 22 18 17 16 18 21 25 34 43 49 52 54 54 55 56 57 56 54 53 52 50 45 38 30 23 20 18 18 18 19 20 19
86 78 66 58 56 53 51 46 37 29 22 17 15 13 13 13 16 20 23 28 34 41 50 56 56 54 53 54 55 55 55 51 43 32 26 24 23 22 23 25 26 26
84 76 65 59 56 51 47 41 33 26 20 15 13 12 12 12 14 16 17 20 24 31 40 43 44 49 55 60 61 59 55 52 47 40 33 28 26 26 27 29 32 34
83 73 61 54 50 45 41 36 29 24 19 14 11 12 15 17 19 20 20 21 23 27 30 31 36 47 57 60 59 55 51 49 48 47 45 39 32 28 28 29 32 35
77 63 53 47 43 39 35 30 26 23 19 15 12 13 15 16 16 17 18 19 20 22 24 25 29 37 46 51 53 51 47 43 41 43 47 47 42 35 32 30 31 33
62 53 48 43 39 35 32 28 26 25 21 16 13 13 13 12 11 12 13 15 17 20 22 23 23 26 31 35 37 35 32 32 35 42 50 55 54 47 42 39 36 35
59 53 48 43 39 37 34 32 30 26 22 18 15 15 14 14 12 12 14 17 18 18 19 20 21 24 27 30 30 26 22 23 30 40 50 57 59 58 56 54 50 45
61 55 51 49 47 45 43 39 33 27 22 19 18 17 17 17 15 13 15 17 17 16 16 15 15 16 19 25 32 33 30 27 25 26 32 39 45 47 47 49 52 53
66 64 62 59 58 58 56 50 42 37 33 30 27 25 24 24 22 18 16 15 14 14 15 14 12 11 11 14 21 29 32 28 20 14 15 19 25 29 30 31 34 41
78 76 69 64 68 75 77 70 61 57 52 45 39 34 31 30 28 26 23 19 18 18 17 16 14 14 13 12 13 16 19 17 14 13 13 13 17 23 27 27 28 31
83 76 68 62 63 69 74 70 66 66 65 60 52 45 40 36 31 28 25 22 20 19 17 16 15 15 16 16 15 15 15 15 15 15 15 15 17 20 22 25 31 37
75 68 63 58 53 51 50 48 49 52 53 52 49 45 41 37 32 28 24 21 20 18 18 18 18 16 17 18 18 18 18 18 18 17 17 17 18 19 19 22 32 48
70 65 61 58 54 51 48 46 45 42 41 41 41 40 40 40 38 34 31 29 26 24 24 22 20 21 25 26 23 21 22 20 20 21 21 22 23 22 22 23 33 55
55 56 54 52 49 45 43 42 41 39 38 37 34 32 33 35 34 31 29 27 23 22 21 20 21 25 32 34 31 30 30 25 23 24 25 27 30 30 29 31 41 60
31 30 30 29 28 25 24 25 26 27 26 25 24 24 25 26 26 24 22 21 19 19 19 19 19 22 28 32 32 35 36 34 34 30 27 31 36 35 41 50 56 62
25 23 22 21 19 19 19 18 18 18 18 18 17 16 17 20 20 20 21 20 18 20 22 23 23 23 25 30 37 43 45 47 47 37 29 36 42 39 46 58 62 65
34 32 30 29 29 30 30 29 27 26 27 30 30 26 25 27 27 26 26 23 22 24 26 29 31 29 25 27 36 44 44 44 46 40 33 39 45 45 48 53 56 62
45 41 41 42 41 40 38 37 37 35 34 39 43 44 44 42 37 33 30 28 28 27 25 23 25 27 25 27 32 35 36 40 46 45 42 45 53 60 63 64 63 62
63 62 62 60 57 54 49 45 45 43 38 35 35 37 38 37 33 29 27 27 26 25 24 22 21 23 27 32 35 35 35 39 43 47 50 53 60 70 73 71 69 65
84 81 78 73 69 64 58 53 50 46 41 37 34 33 32 31 30 30 29 27 27 27 25 23 23 28 35 40 43 44 44 42 42 46 49 51 59 71 75 72 67 63
79 76 73 71 68 62 55 51 46 41 38 36 34 32 31 31 30 29 28 27 28 27 26 29 34 41 50 55 56 58 61 62 64 63 59 59 64 67 66 64 57 50
Wind_Speed
20 20 19 18 17 17 18 18 18 18 18 18 17 17 17 17 18 17 17 17 18 19 20 20 20 19 19 18 18 18 18 18 18 18 17 16 15 14 14 13 14 15
21 21 21 20 20 19 19 19 18 17 15 14 13 14 14 15 16 16 16 16 16 17 18 18 17 17 17 17 18 18 18 18 18 17 16 15 14 13 13 13 14 14
22 23 23 23 22 21 20 19 17 15 14 14 14 14 14 15 16 17 17 17 16 16 16 16 16 16 17 17 18 18 18 18 17 16 15 14 13 13 13 13 13 14
22 24 25 25 23 22 21 19 17 16 16 15 15 15 15 15 15 16 17 17 17 17 17 16 16 17 17 17 18 18 18 18 18 17 15 14 13 13 13 13 13 13
25 25 25 24 24 23 22 20 17 17 17 16 16 16 15 15 15 15 15 15 15 16 17 17 17 17 17 18 18 19 19 19 19 18 16 15 14 13 13 13 12 13
26 24 22 22 22 22 21 20 18 18 18 17 16 16 16 16 16 15 15 15 15 15 16 17 17 17 17 18 18 19 19 19 19 19 17 16 16 15 15 14 14 13
27 24 22 22 22 22 21 20 19 19 19 17 17 17 16 16 16 16 16 16 16 16 16 17 17 18 18 19 19 19 19 18 19 19 18 18 17 17 16 15 15 15
28 25 24 24 24 23 22 21 20 19 19 18 18 17 16 16 15 15 15 15 15 15 16 17 17 18 18 18 18 18 18 18 18 19 19 19 19 18 17 16 16 16
29 26 24 24 24 24 23 21 21 21 20 20 19 18 17 16 15 15 14 14 15 15 15 16 17 17 16 16 17 18 18 18 19 19 20 20 20 19 19 18 18 18
26 24 23 23 23 24 23 22 22 22 22 21 20 19 18 18 17 16 16 15 15 15 15 15 16 17 17 18 19 20 20 21 21 21 21 21 21 20 20 21 21 21
23 22 22 23 23 24 24 24 24 23 23 22 22 20 20 20 20 19 18 18 17 16 16 16 16 17 17 19 20 20 21 21 21 22 22 21 21 21 22 23 23 23
23 23 23 24 24 25 25 25 25 24 24 23 23 22 22 22 21 21 21 20 20 19 17 16 16 16 17 18 19 20 20 20 20 21 22 22 22 22 23 24 25 26
24 24 24 24 24 25 25 25 25 25 24 24 23 23 24 24 24 23 23 22 21 19 17 15 15 15 16 17 19 20 20 20 20 21 22 23 24 25 25 26 27 27
23 24 24 24 25 26 27 27 26 25 25 25 24 24 25 25 24 24 23 23 21 20 19 18 18 19 19 19 20 21 22 22 23 24 25 26 26 27 27 28 30 30
23 24 24 24 25 26 26 27 27 27 26 26 25 24 24 24 24 23 23 23 24 25 25 24 24 24 23 23 23 24 25 27 28 29 29 29 29 29 29 30 32 33
24 25 24 24 25 25 25 26 26 26 27 27 26 26 26 26 26 26 26 27 28 29 29 29 29 29 28 28 28 28 29 31 32 33 33 32 32 32 32 32 34 35
26 26 25 26 26 26 27 27 26 27 27 28 29 29 29 30 30 30 30 31 31 32 32 32 33 33 33 33 33 32 33 34 35 35 36 35 35 35 35 35 35 35
28 28 29 29 29 29 30 30 30 30 30 31 32 32 33 33 33 33 34 34 35 35 35 35 36 38 37 37 37 36 36 37 38 38 38 38 38 38 37 37 36 36
32 32 33 33 34 34 34 34 34 35 35 35 35 36 37 37 37 37 37 38 38 38 38 38 39 40 39 39 39 39 39 40 41 41 41 40 40 39 38 38 38 39
36 36 36 37 37 37 37 38 38 38 38 38 38 39 40 40 40 40 40 40 40 40 40 40 40 41 41 40 40 41 42 42 42 43 42 41 40 39 39 38 39 41
39 39 39 39 39 40 40 40 41 41 41 42 43 43 44 44 44 44 44 44 43 43 41 41 42 42 42 41 41 42 43 44 44 45 44 43 42 42 42 41 41 43
41 42 42 43 42 42 42 42 42 41 41 42 43 44 44 44 44 43 43 43 44 44 43 43 44 43 43 43 43 43 45 46 47 47 46 45 45 45 45 46 45 45
47 47 48 48 47 46 45 44 43 42 42 41 41 41 41 42 42 43 43 44 45 47 47 48 47 46 45 45 46 47 48 48 49 49 48 48 47 46 46 46 45 45
52 51 50 49 48 48 47 47 47 47 47 47 46 46 47 47 48 49 49 49 49 50 51 51 50 48 48 47 48 49 49 49 49 50 49 48 47 47 47 47 46 46
52 51 51 51 51 52 52 53 53 53 53 52 51 52 52 53 53 53 53 53 53 53 53 53 52 50 49 49 48 48 48 48 49 49 50 50 50 50 50 50 50 51
56 56 57 57 58 58 58 58 57 57 56 55 55 54 55 55 56 56 56 56 56 56 56 55 52 49 49 49 49 48 49 49 48 48 49 50 51 52 52 52 53 53
Wind_Direction
249 253 256 259 265 270 274 278 283 289 293 296 296 293 291 291 292 294 293 287 279 274 274 277 275 273 273 275 277 278 277 276 275 276 275 274 274 276 277 279 281 284
252 254 257 258 261 266 272 278 283 287 290 293 296 296 292 291 292 294 294 291 282 273 268 268 267 267 269 272 274 274 274 273 272 273 273 274 276 278 281 284 285 286
253 253 256 258 260 265 270 277 279 278 279 285 291 291 289 289 291 292 292 290 283 274 268 265 266 267 269 270 271 270 270 269 268 269 271 273 276 278 281 283 285 286
254 257 258 257 258 262 267 271 270 268 272 279 283 283 283 286 288 289 289 287 284 280 276 273 274 275 275 274 272 271 270 268 267 267 268 271 274 277 279 282 283 285
258 261 258 255 256 259 262 263 261 262 266 270 272 274 277 281 284 287 288 287 286 284 282 281 280 280 281 280 278 277 275 273 271 270 269 270 272 274 277 279 279 280
256 258 255 254 253 254 256 255 255 257 260 260 262 266 269 273 278 281 283 285 286 285 286 286 285 285 285 284 283 281 278 276 273 270 267 266 266 268 269 271 272 273
253 254 251 250 248 249 250 251 252 254 255 256 259 261 263 266 269 272 275 278 280 283 285 286 287 287 286 284 283 281 279 277 272 268 265 263 262 263 264 267 270 272
252 250 245 244 245 246 247 248 250 251 252 255 255 258 260 260 262 264 267 270 274 278 280 282 283 284 284 283 282 280 280 278 276 273 270 267 265 262 261 263 266 267
248 245 242 240 240 242 243 245 246 247 250 252 252 254 255 256 256 257 260 263 268 273 276 276 276 277 280 281 280 280 279 278 278 277 275 273 270 266 263 261 261 261
237 235 233 233 235 238 241 243 244 246 249 250 250 252 253 254 255 255 256 258 260 265 270 271 270 270 272 275 276 277 277 278 279 279 279 278 274 271 268 266 265 263
223 224 225 228 231 236 238 241 244 247 249 250 251 252 254 257 258 257 256 256 256 257 260 263 267 268 270 272 274 276 277 278 280 282 282 281 277 275 273 272 271 269
220 221 223 227 230 234 239 242 245 246 248 249 250 253 257 259 259 258 256 255 254 253 253 256 260 265 270 273 274 276 277 278 279 281 282 281 279 278 276 275 274 272
223 224 226 230 235 238 242 244 244 245 246 248 252 254 257 260 260 260 258 256 253 251 251 256 261 266 270 272 273 273 273 275 278 280 280 279 278 277 277 277 276 274
227 230 234 238 243 246 247 247 246 246 248 250 253 256 258 260 261 262 261 260 258 258 263 269 272 273 273 272 272 270 270 273 276 278 279 279 278 277 276 276 275 274
233 238 240 242 246 250 254 253 251 251 253 254 255 257 259 260 261 262 262 262 264 269 274 277 278 278 276 273 271 270 271 273 275 276 278 279 279 279 278 278 277 275
242 245 245 246 249 252 257 259 256 255 256 256 257 257 258 259 260 261 263 265 268 271 275 278 279 279 277 274 272 271 271 273 275 277 278 278 279 279 279 280 278 275
247 249 249 250 251 252 256 258 258 257 257 257 257 258 260 261 262 263 265 267 270 272 274 277 278 279 278 276 274 273 272 273 274 275 277 278 279 279 279 280 278 274
247 249 249 251 252 254 256 257 257 257 257 258 259 260 261 263 264 265 266 268 270 272 273 274 276 277 277 276 276 275 274 274 274 275 277 278 278 279 279 278 276 272
247 248 249 251 252 254 255 256 257 258 258 260 261 263 264 265 266 267 267 268 270 271 272 273 273 274 276 275 276 276 275 275 275 276 276 276 276 276 276 275 272 269
251 251 252 253 254 255 256 256 257 258 259 261 262 264 265 266 267 268 269 270 271 271 272 271 271 272 275 276 275 275 274 273 274 274 274 274 272 271 271 269 266 265
254 255 256 258 259 259 259 259 258 259 259 260 261 262 263 265 266 267 268 269 270 270 270 271 271 272 274 276 274 272 271 271 271 272 272 270 268 268 267 265 263 263
259 261 263 264 265 264 264 264 264 263 263 262 262 261 261 262 264 265 265 267 267 266 268 272 273 273 273 274 273 271 270 270 270 271 270 269 268 269 268 266 264 263
267 268 267 267 267 265 265 265 267 268 267 265 262 260 259 260 262 264 265 265 264 265 268 271 273 273 273 273 271 270 269 269 269 269 269 269 268 267 267 266 265 263
269 268 267 266 266 266 266 268 270 272 271 270 267 264 263 263 265 267 268 267 267 267 269 271 272 272 271 270 270 268 267 267 267 267 267 267 265 264 264 265 265 264
268 268 268 268 269 270 271 272 273 274 274 273 271 269 269 268 269 269 270 270 271 271 272 273 272 271 269 268 267 266 265 265 265 265 266 266 264 264 265 266 265 265
270 270 271 271 273 274 274 274 274 274 274 273 272 272 272 271 271 272 272 272 272 273 273 272 270 268 267 266 264 264 264 263 263 264 264 264 265 266 267 268 268 268